When you browse on this site, cookies collect data to enhance your experience and personalize the content and advertising you see.
Visit our Privacy Policy to learn more. By continuing to use the site, you agree to this use of cookies and data.

Stündliche Wetter Laszkar Gah

Heute, 7 August, Freitag

Zeit Temperatur Niederschläge Wind Luftdruck Luftfeuchtigkeit
00:00 +33°C° 0 mm 3 m/S 684 mmHg 11%
01:00 +31°C° 0 mm 2 m/S 684 mmHg 12%
02:00 +31°C° 0 mm 2 m/S 684 mmHg 11%
03:00 +30°C° 0 mm 3 m/S 684 mmHg 11%
04:00 +30°C° 0 mm 3 m/S 684 mmHg 11%
05:00 +33°C° 0 mm 3 m/S 685 mmHg 10%
06:00 +34°C° 0 mm 3 m/S 686 mmHg 10%
07:00 +36°C° 0 mm 4 m/S 687 mmHg 9%
08:00 +38°C° 0 mm 4 m/S 687 mmHg 10%
09:00 +42°C° 0 mm 5 m/S 687 mmHg 12%
10:00 +45°C° 0 mm 5 m/S 687 mmHg 13%
11:00 +47°C° 0 mm 4 m/S 687 mmHg 11%
12:00 +47°C° 0 mm 3 m/S 687 mmHg 10%
13:00 +48°C° 0 mm 2 m/S 686 mmHg 8%
14:00 +48°C° 0 mm 2 m/S 686 mmHg 8%
15:00 +48°C° 0 mm 2 m/S 685 mmHg 7%
16:00 +48°C° 0 mm 2 m/S 684 mmHg 7%
17:00 +46°C° 0 mm 3 m/S 684 mmHg 8%
18:00 +44°C° 0 mm 3 m/S 684 mmHg 8%
19:00 +41°C° 0 mm 4 m/S 684 mmHg 8%
20:00 +40°C° 0 mm 4 m/S 684 mmHg 10%
21:00 +38°C° 0 mm 4 m/S 684 mmHg 13%
22:00 +36°C° 0 mm 5 m/S 684 mmHg 15%
23:00 +35°C° 0 mm 5 m/S 684 mmHg 23%

Morgen, 8 August, Samstag

Zeit Temperatur Niederschläge Wind Luftdruck Luftfeuchtigkeit
00:00 +34°C° 0 mm 5 m/S 684 mmHg 31%
01:00 +33°C° 0 mm 5 m/S 684 mmHg 39%
02:00 +32°C° 0 mm 4 m/S 683 mmHg 42%
03:00 +31°C° 0 mm 3 m/S 683 mmHg 44%
04:00 +30°C° 0 mm 3 m/S 683 mmHg 46%
05:00 +31°C° 0 mm 3 m/S 684 mmHg 39%
06:00 +33°C° 0 mm 3 m/S 684 mmHg 33%
07:00 +34°C° 0 mm 4 m/S 685 mmHg 27%
08:00 +36°C° 0 mm 4 m/S 685 mmHg 23%
09:00 +38°C° 0 mm 4 m/S 686 mmHg 19%
10:00 +40°C° 0 mm 5 m/S 686 mmHg 14%
11:00 +41°C° 0 mm 5 m/S 686 mmHg 14%
12:00 +42°C° 0 mm 5 m/S 685 mmHg 14%
13:00 +45°C° 0 mm 5 m/S 685 mmHg 14%
14:00 +45°C° 0 mm 5 m/S 684 mmHg 15%
15:00 +45°C° 0 mm 5 m/S 683 mmHg 15%
16:00 +45°C° 0 mm 5 m/S 683 mmHg 16%
17:00 +43°C° 0 mm 5 m/S 683 mmHg 18%
18:00 +42°C° 0 mm 5 m/S 683 mmHg 19%
19:00 +40°C° 0 mm 5 m/S 683 mmHg 21%
20:00 +39°C° 0 mm 5 m/S 683 mmHg 22%
21:00 +37°C° 0 mm 5 m/S 684 mmHg 24%
22:00 +36°C° 0 mm 5 m/S 684 mmHg 25%
23:00 +35°C° 0 mm 4 m/S 683 mmHg 26%

übermorgen, 9 August, Sonntag

Zeit Temperatur Niederschläge Wind Luftdruck Luftfeuchtigkeit
00:00 +34°C° 0 mm 4 m/S 683 mmHg 27%
01:00 +33°C° 0 mm 3 m/S 683 mmHg 28%
02:00 +31°C° 0 mm 3 m/S 683 mmHg 31%
03:00 +31°C° 0 mm 3 m/S 683 mmHg 33%
04:00 +30°C° 0 mm 3 m/S 683 mmHg 36%
05:00 +31°C° 0 mm 3 m/S 683 mmHg 34%
06:00 +33°C° 0 mm 4 m/S 684 mmHg 31%
07:00 +34°C° 0 mm 4 m/S 684 mmHg 29%
08:00 +36°C° 0 mm 4 m/S 685 mmHg 24%
09:00 +37°C° 0 mm 5 m/S 685 mmHg 20%
10:00 +40°C° 0 mm 5 m/S 685 mmHg 15%
11:00 +42°C° 0 mm 4 m/S 684 mmHg 13%
12:00 +44°C° 0 mm 4 m/S 684 mmHg 11%
13:00 +45°C° 0 mm 3 m/S 684 mmHg 9%
14:00 +47°C° 0 mm 4 m/S 683 mmHg 8%
15:00 +47°C° 0 mm 4 m/S 683 mmHg 7%
16:00 +48°C° 0 mm 4 m/S 682 mmHg 6%
17:00 +45°C° 0 mm 5 m/S 682 mmHg 7%
18:00 +42°C° 0 mm 5 m/S 682 mmHg 7%
19:00 +40°C° 0 mm 5 m/S 681 mmHg 7%
20:00 +37°C° 0 mm 4 m/S 681 mmHg 10%
21:00 +35°C° 0 mm 4 m/S 681 mmHg 12%
22:00 +33°C° 0 mm 3 m/S 681 mmHg 14%
23:00 +30°C° 0 mm 4 m/S 681 mmHg 16%

10 August, Montag

Zeit Temperatur Niederschläge Wind Luftdruck Luftfeuchtigkeit
00:00 +29°C° 0 mm 4 m/S 681 mmHg 17%
01:00 +28°C° 0 mm 4 m/S 681 mmHg 19%
02:00 +27°C° 0 mm 4 m/S 681 mmHg 22%
03:00 +26°C° 0 mm 3 m/S 681 mmHg 24%
04:00 +24°C° 0 mm 2 m/S 681 mmHg 27%
05:00 +26°C° 0 mm 3 m/S 682 mmHg 25%
06:00 +27°C° 0 mm 3 m/S 682 mmHg 23%
07:00 +28°C° 0 mm 4 m/S 683 mmHg 21%
08:00 +32°C° 0 mm 4 m/S 683 mmHg 18%
09:00 +34°C° 0 mm 4 m/S 684 mmHg 15%
10:00 +37°C° 0 mm 4 m/S 684 mmHg 12%
11:00 +39°C° 0 mm 3 m/S 684 mmHg 10%
12:00 +42°C° 0 mm 3 m/S 684 mmHg 8%
13:00 +44°C° 0 mm 3 m/S 683 mmHg 6%
14:00 +43°C° 0 mm 2 m/S 683 mmHg 6%
15:00 +45°C° 0 mm 2 m/S 683 mmHg 5%
16:00 +45°C° 0 mm 2 m/S 682 mmHg 5%
17:00 +42°C° 0 mm 2 m/S 682 mmHg 6%
18:00 +39°C° 0 mm 3 m/S 681 mmHg 7%
19:00 +36°C° 0 mm 3 m/S 681 mmHg 8%
20:00 +35°C° 0 mm 3 m/S 681 mmHg 8%
21:00 +32°C° 0 mm 2 m/S 681 mmHg 9%
22:00 +31°C° 0 mm 1 m/S 681 mmHg 10%
23:00 +30°C° 0 mm 1 m/S 681 mmHg 10%

11 August, Dienstag

Zeit Temperatur Niederschläge Wind Luftdruck Luftfeuchtigkeit
00:00 +30°C° 0 mm 1 m/S 681 mmHg 11%
01:00 +29°C° 0 mm 1 m/S 681 mmHg 11%
02:00 +29°C° 0 mm 1 m/S 681 mmHg 11%
03:00 +29°C° 0 mm 2 m/S 682 mmHg 12%
04:00 +29°C° 0 mm 2 m/S 682 mmHg 12%
05:00 +29°C° 0 mm 2 m/S 682 mmHg 12%
06:00 +30°C° 0 mm 3 m/S 683 mmHg 13%
07:00 +31°C° 0 mm 3 m/S 683 mmHg 13%
08:00 +35°C° 0 mm 2 m/S 684 mmHg 12%
09:00 +36°C° 0 mm 1 m/S 684 mmHg 10%
10:00 +39°C° 0 mm 1 m/S 685 mmHg 8%
11:00 +41°C° 0 mm 1 m/S 684 mmHg 7%
12:00 +43°C° 0 mm 2 m/S 684 mmHg 6%
13:00 +46°C° 0 mm 3 m/S 684 mmHg 5%
14:00 +46°C° 0 mm 3 m/S 684 mmHg 5%
15:00 +48°C° 0 mm 4 m/S 683 mmHg 5%
16:00 +48°C° 0 mm 4 m/S 683 mmHg 5%
17:00 +45°C° 0 mm 4 m/S 682 mmHg 6%
18:00 +43°C° 0 mm 4 m/S 682 mmHg 7%
19:00 +40°C° 0 mm 4 m/S 682 mmHg 8%
20:00 +38°C° 0 mm 4 m/S 682 mmHg 9%
21:00 +36°C° 0 mm 3 m/S 683 mmHg 9%
22:00 +35°C° 0 mm 3 m/S 683 mmHg 10%
23:00 +34°C° 0 mm 3 m/S 683 mmHg 10%

12 August, Mittwoch

Zeit Temperatur Niederschläge Wind Luftdruck Luftfeuchtigkeit
00:00 +32°C° 0 mm 2 m/S 683 mmHg 10%
01:00 +31°C° 0 mm 2 m/S 683 mmHg 11%
02:00 +30°C° 0 mm 2 m/S 683 mmHg 11%
03:00 +29°C° 0 mm 2 m/S 683 mmHg 12%
04:00 +28°C° 0 mm 2 m/S 683 mmHg 12%
05:00 +30°C° 0 mm 1 m/S 684 mmHg 12%
06:00 +32°C° 0 mm 1 m/S 684 mmHg 11%
07:00 +33°C° 0 mm 1 m/S 685 mmHg 11%
08:00 +36°C° 0 mm 2 m/S 685 mmHg 10%
09:00 +38°C° 0 mm 2 m/S 686 mmHg 9%
10:00 +40°C° 0 mm 2 m/S 686 mmHg 8%
11:00 +43°C° 0 mm 3 m/S 685 mmHg 7%
12:00 +45°C° 0 mm 3 m/S 685 mmHg 6%
13:00 +48°C° 0 mm 4 m/S 685 mmHg 6%
14:00 +48°C° 0 mm 4 m/S 685 mmHg 6%
15:00 +49°C° 0 mm 4 m/S 684 mmHg 5%
16:00 +49°C° 0 mm 5 m/S 684 mmHg 5%
17:00 +47°C° 0 mm 5 m/S 683 mmHg 6%
18:00 +43°C° 0 mm 5 m/S 683 mmHg 7%
19:00 +41°C° 0 mm 5 m/S 683 mmHg 8%
20:00 +40°C° 0 mm 4 m/S 683 mmHg 9%
21:00 +37°C° 0 mm 4 m/S 683 mmHg 10%
22:00 +36°C° 0 mm 3 m/S 684 mmHg 11%
23:00 +34°C° 0 mm 3 m/S 683 mmHg 11%
Mehr zeigen